Location: Bocchiglicro
(39.4167°N, 16.7500°E)
Time: 18:44:14
(UTC+00:00)

Cosmos 2228 Rocket - Pass Details

Date: 07 June 2020
Orbit: 619 x 651 km, 82.5° (Epoch: 07 July)

Event Time Altitude Azimuth Distance (km) Brightness Sun altitude
Rises 02:47:05 0° 356° (N) 2,947 7.0 -7.1°
Reaches altitude 10° 02:49:21 10° 360° (N) 2,039 6.3 -6.7°
Maximum altitude 02:53:51 62° 81° (E) 729 3.8 -6.0°
Drops below altitude 10° 02:58:20 10° 162° (SSE) 2,041 5.6 -5.3°
Sets 03:00:36 0° 166° (SSE) 2,950 6.3 -5.0°
